Reggio Calabria, Italy

3:58 AM CEST on March 30, 2017 (GMT +0200)
Reggio Calabria

Weather History for LICR - March, 2013

Change the Weather History Date:

Sunday, March 10, 2013

  Actual Average Record
Temperature  
Mean Temperature 64 °F -  
Max Temperature 69 °F 62 °F 69 °F (2013)
Min Temperature 60 °F 50 °F 41 °F (2011)
Growing Degree Days 14 (Base 50)    
Moisture  
Dew Point 49 °F    
Average Humidity 58    
Maximum Humidity 73    
Minimum Humidity 43    
Precipitation  
Precipitation 0.00 in - - ()
Sea Level Pressure  
Sea Level Pressure 29.74 in    
Wind  
Wind Speed 7 mph ()    
Max Wind Speed 15 mph    
Max Gust Speed 23 mph    
Visibility 6.2 miles    
Events      
Averages and records for this station are not official NWS values.
T = Trace of Precipitation, MM = Missing Value Source: Averaged Metar Reports

Daily Weather History Graph

Daily Weather History Graph

Search for Another Location

Airport or City:

Trip Planner

Search our weather history database for the weather conditions in past years. The results will help you decide how hot, cold, wet, or windy it might be!

Date:

Astronomy

Mar. 10, 2013 Rise Set
Actual Time 6:16 AM CET 5:59 PM CET
Civil Twilight 5:49 AM CET 6:26 PM CET
Nautical Twilight 5:19 AM CET 6:56 PM CET
Astronomical Twilight 4:48 AM CET 7:27 PM CET
Moon 5:04 AM CET (3/10) 4:48 PM CET (3/10)
Length of Visible Light 12h 36m
Length of Day
11h 43m
Waning Crescent, 2% of the Moon is Illuminated
Mar 10
Waning Crescent
Mar 11
New
Mar 19
First Quarter
Mar 27
Full
Apr 3
Last Quarter

Hourly Weather History & Observations

Time (CET) Temp. Dew Point Humidity Pressure Visibility Wind Dir Wind Speed Gust Speed Precip Events Conditions
5:50 AM 60.8 °F 50.0 °F 68% 29.77 in 6.2 mi NNW 3.5 mph - N/A   Scattered Clouds
6:50 AM 60.8 °F 50.0 °F 68% 29.77 in 6.2 mi NNE 8.1 mph - N/A   Mostly Cloudy
7:50 AM 64.4 °F 50.0 °F 59% 29.77 in 6.2 mi NNE 8.1 mph - N/A   Scattered Clouds
8:50 AM 68.0 °F 50.0 °F 52% 29.77 in - NNE 9.2 mph - N/A   Clear
9:50 AM 69.8 °F 46.4 °F 43% 29.74 in - North 9.2 mph - N/A   Clear
10:50 AM 69.8 °F 50.0 °F 49% 29.74 in - NNW 9.2 mph - N/A   Clear
11:50 AM 64.4 °F 55.4 °F 73% 29.74 in - SW 11.5 mph - N/A   Clear
12:50 PM 66.2 °F 53.6 °F 64% 29.74 in - West 5.8 mph - N/A   Clear
1:50 PM 68.0 °F 51.8 °F 56% 29.71 in - NW 5.8 mph - N/A   Clear
2:50 PM 66.2 °F 50.0 °F 56% 29.71 in - NNW 8.1 mph - N/A   Clear
3:50 PM 66.2 °F 53.6 °F 64% 29.71 in - North 11.5 mph - N/A   Clear
4:50 PM 64.4 °F 50.0 °F 59% 29.71 in - North 13.8 mph - N/A   Clear
5:50 PM 62.6 °F 48.2 °F 59% 29.71 in 6.2 mi North 15.0 mph - N/A   Partly Cloudy
6:50 PM 62.6 °F 46.4 °F 55% 29.71 in 6.2 mi North 10.4 mph - N/A   Partly Cloudy
7:50 PM 62.6 °F 44.6 °F 52% 29.74 in 6.2 mi North 11.5 mph - N/A   Partly Cloudy
8:50 PM 62.6 °F 44.6 °F 52% 29.77 in 6.2 mi NNE 11.5 mph - N/A   Partly Cloudy
9:50 PM 62.6 °F 46.4 °F 55% 29.74 in 6.2 mi NE 11.5 mph 23.0 mph N/A   Partly Cloudy
10:50 PM 60.8 °F 46.4 °F 59% 29.74 in 6.2 mi NE 6.9 mph - N/A   Partly Cloudy
11:50 PM 60.8 °F 44.6 °F 55% 29.74 in 6.2 mi NNE 6.9 mph - N/A   Partly Cloudy